Time,TemperatureF,DewpointF,PressureIn,WindDirection,WindDirectionDegrees,WindSpeedMPH,WindSpeedGustMPH,Humidity,HourlyPrecipIn,Conditions,Clouds,dailyrainin,SolarRadiationWatts/m^2,SoftwareType,DateUTC
2013-04-21 00:01:00,38.0,38.0,-100.00,East,81,2.0,7.0,100,0.01,,,0.20,0.000000,,2013-04-21 07:01:00,
2013-04-21 00:32:00,38.0,38.0,-100.00,North,11,2.0,7.0,100,0.00,,,0.19,0.000000,,2013-04-21 07:32:00,
2013-04-21 00:42:00,38.0,38.0,-100.00,North,11,2.0,7.0,100,0.00,,,0.19,0.000000,,2013-04-21 07:42:00,
2013-04-21 00:52:00,38.0,38.0,-100.00,North,11,2.0,7.0,100,0.00,,,0.19,0.000000,,2013-04-21 07:52:00,
2013-04-21 01:01:00,38.0,38.0,-100.00,North,11,2.0,7.0,100,0.00,,,0.19,0.000000,,2013-04-21 08:01:00,
2013-04-21 01:32:00,37.0,37.0,-100.00,ESE,104,2.0,9.0,100,0.00,,,0.18,0.000000,,2013-04-21 08:32:00,
2013-04-21 01:42:00,37.0,37.0,-100.00,ESE,104,2.0,9.0,100,0.00,,,0.18,0.000000,,2013-04-21 08:42:00,
2013-04-21 01:52:00,37.0,37.0,-100.00,ESE,104,2.0,9.0,100,0.00,,,0.18,0.000000,,2013-04-21 08:52:00,
2013-04-21 02:01:00,37.0,37.0,-100.00,ESE,104,2.0,9.0,100,0.00,,,0.18,0.000000,,2013-04-21 09:01:00,
2013-04-21 02:33:00,37.0,37.0,-100.00,ENE,77,2.0,8.0,100,0.00,,,0.13,0.000000,,2013-04-21 09:33:00,
2013-04-21 02:43:00,37.0,37.0,-100.00,ENE,77,2.0,8.0,100,0.00,,,0.13,0.000000,,2013-04-21 09:43:00,
2013-04-21 02:53:00,37.0,37.0,-100.00,ENE,77,2.0,8.0,100,0.00,,,0.13,0.000000,,2013-04-21 09:53:00,
2013-04-21 03:02:00,37.0,37.0,-100.00,ENE,77,2.0,8.0,100,0.00,,,0.13,0.000000,,2013-04-21 10:02:00,
2013-04-21 03:33:00,37.0,37.0,-100.00,ESE,115,2.0,7.0,100,0.00,,,0.12,0.000000,,2013-04-21 10:33:00,
2013-04-21 03:42:00,37.0,37.0,-100.00,ESE,115,2.0,7.0,100,0.00,,,0.12,0.000000,,2013-04-21 10:42:00,
2013-04-21 03:52:00,37.0,37.0,-100.00,ESE,115,2.0,7.0,100,0.00,,,0.12,0.000000,,2013-04-21 10:52:00,
2013-04-21 04:02:00,37.0,37.0,-100.00,ESE,115,2.0,7.0,100,0.00,,,0.12,0.000000,,2013-04-21 11:02:00,
2013-04-21 04:34:00,35.0,35.0,-100.00,NE,53,2.0,8.0,100,0.00,,,0.09,0.000000,,2013-04-21 11:34:00,
2013-04-21 04:42:00,35.0,35.0,-100.00,NE,53,2.0,8.0,100,0.00,,,0.09,0.000000,,2013-04-21 11:42:00,
2013-04-21 04:52:00,35.0,35.0,-100.00,NE,53,2.0,8.0,100,0.00,,,0.09,0.000000,,2013-04-21 11:52:00,
2013-04-21 05:02:00,35.0,35.0,-100.00,NE,53,2.0,8.0,100,0.00,,,0.09,0.000000,,2013-04-21 12:02:00,
2013-04-21 05:32:00,34.0,34.0,-100.00,WNW,299,1.0,6.0,100,0.00,,,0.07,0.000000,,2013-04-21 12:32:00,
2013-04-21 05:42:00,34.0,34.0,-100.00,WNW,299,1.0,6.0,100,0.00,,,0.07,0.000000,,2013-04-21 12:42:00,
2013-04-21 05:52:00,34.0,34.0,-100.00,WNW,299,1.0,6.0,100,0.00,,,0.07,0.000000,,2013-04-21 12:52:00,
2013-04-21 06:01:00,34.0,34.0,-100.00,WNW,299,1.0,6.0,100,0.00,,,0.07,0.000000,,2013-04-21 13:01:00,
2013-04-21 06:32:00,36.0,36.0,-100.00,SSE,161,2.0,8.0,100,0.00,,,0.06,0.000000,,2013-04-21 13:32:00,
2013-04-21 06:42:00,36.0,36.0,-100.00,SSE,161,2.0,8.0,100,0.00,,,0.06,0.000000,,2013-04-21 13:42:00,
2013-04-21 06:52:00,36.0,36.0,-100.00,SSE,161,2.0,8.0,100,0.00,,,0.06,0.000000,,2013-04-21 13:52:00,
2013-04-21 07:01:00,36.0,36.0,-100.00,SSE,161,2.0,8.0,100,0.00,,,0.06,0.000000,,2013-04-21 14:01:00,
2013-04-21 07:32:00,36.0,36.0,-100.00,NNE,25,2.0,6.0,100,0.00,,,0.06,26.000000,,2013-04-21 14:32:00,
2013-04-21 07:42:00,36.0,36.0,-100.00,NNE,25,2.0,6.0,100,0.00,,,0.06,26.000000,,2013-04-21 14:42:00,
2013-04-21 07:52:00,36.0,36.0,-100.00,NNE,25,2.0,6.0,100,0.00,,,0.06,26.000000,,2013-04-21 14:52:00,
2013-04-21 08:02:00,36.0,36.0,-100.00,NNE,25,2.0,6.0,100,0.00,,,0.06,26.000000,,2013-04-21 15:02:00,
2013-04-21 08:33:00,37.0,37.0,-100.00,SSE,161,2.0,8.0,100,0.00,,,0.06,140.000000,,2013-04-21 15:33:00,
2013-04-21 08:43:00,37.0,37.0,-100.00,SSE,161,2.0,8.0,100,0.00,,,0.06,140.000000,,2013-04-21 15:43:00,
2013-04-21 08:53:00,37.0,37.0,-100.00,SSE,161,2.0,8.0,100,0.00,,,0.06,140.000000,,2013-04-21 15:53:00,
2013-04-21 09:03:00,37.0,37.0,-100.00,SSE,161,2.0,8.0,100,0.00,,,0.06,140.000000,,2013-04-21 16:03:00,
2013-04-21 09:33:00,40.0,39.0,-100.00,NW,321,2.0,8.0,95,0.00,,,0.06,271.000000,,2013-04-21 16:33:00,
2013-04-21 09:42:00,40.0,39.0,-100.00,NW,321,2.0,8.0,95,0.00,,,0.06,271.000000,,2013-04-21 16:42:00,
2013-04-21 09:52:00,40.0,39.0,-100.00,NW,321,2.0,8.0,95,0.00,,,0.06,271.000000,,2013-04-21 16:52:00,
2013-04-21 10:02:00,40.0,39.0,-100.00,NW,321,2.0,8.0,95,0.00,,,0.06,271.000000,,2013-04-21 17:02:00,
2013-04-21 10:32:00,41.0,39.0,-100.00,ESE,112,2.0,9.0,92,0.00,,,0.05,308.000000,,2013-04-21 17:32:00,
2013-04-21 10:42:00,41.0,39.0,-100.00,ESE,112,2.0,9.0,92,0.00,,,0.05,308.000000,,2013-04-21 17:42:00,
2013-04-21 10:52:00,41.0,39.0,-100.00,ESE,112,2.0,9.0,92,0.00,,,0.05,308.000000,,2013-04-21 17:52:00,
2013-04-21 11:02:00,41.0,39.0,-100.00,ESE,112,2.0,9.0,92,0.00,,,0.05,308.000000,,2013-04-21 18:02:00,
2013-04-21 11:33:00,42.0,39.0,-100.00,West,265,2.0,12.0,90,0.01,,,0.05,311.000000,,2013-04-21 18:33:00,
2013-04-21 11:42:00,42.0,39.0,-100.00,West,265,2.0,12.0,90,0.01,,,0.05,311.000000,,2013-04-21 18:42:00,
2013-04-21 11:52:00,42.0,39.0,-100.00,West,265,2.0,12.0,90,0.01,,,0.05,311.000000,,2013-04-21 18:52:00,
2013-04-21 12:02:00,42.0,39.0,-100.00,West,265,2.0,12.0,90,0.01,,,0.05,311.000000,,2013-04-21 19:02:00,
2013-04-21 12:32:00,43.0,39.0,-100.00,West,271,3.0,9.0,87,0.00,,,0.04,344.000000,,2013-04-21 19:32:00,
2013-04-21 12:43:00,43.0,39.0,-100.00,West,271,3.0,9.0,87,0.00,,,0.04,344.000000,,2013-04-21 19:43:00,
2013-04-21 12:52:00,43.0,39.0,-100.00,West,271,3.0,9.0,87,0.00,,,0.04,344.000000,,2013-04-21 19:52:00,
2013-04-21 13:01:00,43.0,39.0,-100.00,West,271,3.0,9.0,87,0.00,,,0.04,344.000000,,2013-04-21 20:01:00,
2013-04-21 13:32:00,44.0,39.0,-100.00,ENE,65,4.0,13.0,81,0.00,,,0.04,481.000000,,2013-04-21 20:32:00,
2013-04-21 13:42:00,44.0,39.0,-100.00,ENE,65,4.0,13.0,81,0.00,,,0.04,481.000000,,2013-04-21 20:42:00,
2013-04-21 13:52:00,44.0,39.0,-100.00,ENE,65,4.0,13.0,81,0.00,,,0.04,481.000000,,2013-04-21 20:52:00,
2013-04-21 14:02:00,44.0,39.0,-100.00,ENE,65,4.0,13.0,81,0.00,,,0.04,481.000000,,2013-04-21 21:02:00,
2013-04-21 14:33:00,49.0,39.0,-100.00,NNW,338,3.0,12.0,68,0.00,,,0.04,526.000000,,2013-04-21 21:33:00,
2013-04-21 14:43:00,49.0,39.0,-100.00,NNW,338,3.0,12.0,68,0.00,,,0.04,526.000000,,2013-04-21 21:43:00,
2013-04-21 14:53:00,49.0,39.0,-100.00,NNW,338,3.0,12.0,68,0.00,,,0.04,526.000000,,2013-04-21 21:53:00,
2013-04-21 15:02:00,49.0,39.0,-100.00,NNW,338,3.0,12.0,68,0.00,,,0.04,526.000000,,2013-04-21 22:02:00,
2013-04-21 15:33:00,48.0,39.0,-100.00,NNW,333,4.0,13.0,72,0.00,,,0.04,523.000000,,2013-04-21 22:33:00,
2013-04-21 15:43:00,48.0,39.0,-100.00,NNW,333,4.0,13.0,72,0.00,,,0.04,523.000000,,2013-04-21 22:43:00,
2013-04-21 15:52:00,48.0,39.0,-100.00,NNW,333,4.0,13.0,72,0.00,,,0.04,523.000000,,2013-04-21 22:52:00,
2013-04-21 16:02:00,48.0,39.0,-100.00,NNW,333,4.0,13.0,72,0.00,,,0.04,523.000000,,2013-04-21 23:02:00,
2013-04-21 16:32:00,46.0,38.0,-100.00,WNW,295,3.0,11.0,74,0.00,,,0.04,352.000000,,2013-04-21 23:32:00,
2013-04-21 16:43:00,46.0,38.0,-100.00,WNW,295,3.0,11.0,74,0.00,,,0.04,352.000000,,2013-04-21 23:43:00,
2013-04-21 16:52:00,46.0,38.0,-100.00,WNW,295,3.0,11.0,74,0.00,,,0.04,352.000000,,2013-04-21 23:52:00,
2013-04-21 17:01:00,46.0,38.0,-100.00,WNW,295,3.0,11.0,74,0.00,,,0.04,352.000000,,2013-04-22 00:01:00,
2013-04-21 17:32:00,48.0,40.0,-100.00,NNE,30,3.0,12.0,75,0.00,,,-99.99,393.000000,,2013-04-22 00:32:00,
2013-04-21 17:42:00,48.0,40.0,-100.00,NNE,30,3.0,12.0,75,0.00,,,-99.99,393.000000,,2013-04-22 00:42:00,
2013-04-21 17:52:00,48.0,40.0,-100.00,NNE,30,3.0,12.0,75,0.00,,,-99.99,393.000000,,2013-04-22 00:52:00,
2013-04-21 18:01:00,48.0,40.0,-100.00,NNE,30,3.0,12.0,75,0.00,,,-99.99,393.000000,,2013-04-22 01:01:00,
2013-04-21 18:32:00,45.0,36.0,-100.00,SW,231,3.0,15.0,71,0.00,,,0.04,381.000000,,2013-04-22 01:32:00,
2013-04-21 18:42:00,45.0,36.0,-100.00,SW,231,3.0,15.0,71,0.00,,,0.04,381.000000,,2013-04-22 01:42:00,
2013-04-21 18:52:00,45.0,36.0,-100.00,SW,231,3.0,15.0,71,0.00,,,0.04,381.000000,,2013-04-22 01:52:00,
2013-04-21 19:01:00,45.0,36.0,-100.00,SW,231,3.0,15.0,71,0.00,,,0.04,381.000000,,2013-04-22 02:01:00,
2013-04-21 19:32:00,40.0,38.0,-100.00,ENE,78,2.0,10.0,93,0.00,,,0.04,102.000000,,2013-04-22 02:32:00,
2013-04-21 19:42:00,40.0,38.0,-100.00,ENE,78,2.0,10.0,93,0.00,,,0.04,102.000000,,2013-04-22 02:42:00,
2013-04-21 19:52:00,40.0,38.0,-100.00,ENE,78,2.0,10.0,93,0.00,,,0.04,102.000000,,2013-04-22 02:52:00,
2013-04-21 20:02:00,40.0,38.0,-100.00,ENE,78,2.0,10.0,93,0.00,,,0.04,102.000000,,2013-04-22 03:02:00,
2013-04-21 20:33:00,37.0,35.0,-100.00,West,271,2.0,9.0,94,0.00,,,0.03,27.000000,,2013-04-22 03:33:00,
2013-04-21 20:43:00,37.0,35.0,-100.00,West,271,2.0,9.0,94,0.00,,,0.03,27.000000,,2013-04-22 03:43:00,
2013-04-21 20:52:00,37.0,35.0,-100.00,West,271,2.0,9.0,94,0.00,,,0.03,27.000000,,2013-04-22 03:52:00,
2013-04-21 21:02:00,37.0,35.0,-100.00,West,271,2.0,9.0,94,0.00,,,0.03,27.000000,,2013-04-22 04:02:00,
2013-04-21 21:33:00,36.0,36.0,-100.00,NNE,26,1.0,5.0,100,0.02,,,0.04,0.000000,,2013-04-22 04:33:00,
2013-04-21 21:43:00,36.0,36.0,-100.00,NNE,26,1.0,5.0,100,0.02,,,0.04,0.000000,,2013-04-22 04:43:00,
2013-04-21 21:52:00,36.0,36.0,-100.00,NNE,26,1.0,5.0,100,0.02,,,0.04,0.000000,,2013-04-22 04:52:00,
2013-04-21 22:02:00,36.0,36.0,-100.00,NNE,26,1.0,5.0,100,0.02,,,0.04,0.000000,,2013-04-22 05:02:00,
2013-04-21 22:33:00,37.0,37.0,-100.00,NNE,20,1.0,6.0,100,0.00,,,0.04,0.000000,,2013-04-22 05:33:00,
2013-04-21 22:42:00,37.0,37.0,-100.00,NNE,20,1.0,6.0,100,0.00,,,0.04,0.000000,,2013-04-22 05:42:00,
2013-04-21 22:52:00,37.0,37.0,-100.00,NNE,20,1.0,6.0,100,0.00,,,0.04,0.000000,,2013-04-22 05:52:00,
2013-04-21 23:02:00,37.0,37.0,-100.00,NNE,20,1.0,6.0,100,0.00,,,0.04,0.000000,,2013-04-22 06:02:00,
2013-04-21 23:32:00,35.0,35.0,-100.00,NE,36,1.0,1.0,100,0.00,,,0.03,0.000000,,2013-04-22 06:32:00,
2013-04-21 23:42:00,35.0,35.0,-100.00,NE,36,1.0,1.0,100,0.00,,,0.03,0.000000,,2013-04-22 06:42:00,
2013-04-21 23:52:00,35.0,35.0,-100.00,NE,36,1.0,1.0,100,0.00,,,0.03,0.000000,,2013-04-22 06:52:00,